Weather History for Fort Myers Airport, FL

Change the Weather History Date:

Monday, September 9, 2013

  Actual Average Record
Temperature  
Mean Temperature 82 °F -  
Max Temperature 91 °F 90 °F 96 °F (1987)
Min Temperature 73 °F 75 °F 68 °F (1958)
Cooling Degree Days 16    
Growing Degree Days 32 (Base 50)    
Moisture  
Dew Point 72 °F    
Average Humidity 77    
Maximum Humidity 94    
Minimum Humidity 52    
Precipitation  
Precipitation 0.03 in - - ()
Sea Level Pressure  
Sea Level Pressure 29.96 in    
Wind  
Wind Speed 5 mph (ENE)    
Max Wind Speed 14 mph    
Max Gust Speed 20 mph    
Visibility 10 miles    
Events Rain    
Averages and records for this station are not official NWS values.
T = Trace of Precipitation, MM = Missing Value Source: NWS Daily Summary

Daily Weather History Graph

Daily Weather History Graph

Search for Another Location

Airport:

Trip Planner

Search our weather history database for the weather conditions in past years. The results will help you decide how hot, cold, wet, or windy it might be!

Date:

Astronomy

Sep. 09, 2013 Rise Set
Actual Time 7:10 AM EDT 7:37 PM EDT
Civil Twilight 6:46 AM EDT 8:01 PM EDT
Nautical Twilight 6:19 AM EDT 8:28 PM EDT
Astronomical Twilight 5:52 AM EDT 8:55 PM EDT
Moon 11:01 AM EDT (9/9) 10:23 PM EDT (9/9)
Length of Visible Light 13h 14m
Length of Day
12h 27m
Waxing Crescent, 19% of the Moon is Illuminated
Sep 9
Waxing Crescent
Sep 12
First Quarter
Sep 19
Full
Sep 26
Last Quarter
Oct 4
New

Hourly Weather History & Observations

Time (EDT) Temp. Heat Index Dew Point Humidity Pressure Visibility Wind Dir Wind Speed Gust Speed Precip Events Conditions
12:53 AM 75.9 °F - 73.0 °F 91% 29.95 in 10.0 mi Calm Calm - N/A   Clear
1:53 AM 75.0 °F - 72.0 °F 90% 29.94 in 10.0 mi NNE 3.5 mph - N/A   Clear
2:53 AM 75.0 °F - 73.0 °F 94% 29.92 in 10.0 mi ENE 3.5 mph - N/A   Clear
3:53 AM 75.0 °F - 73.0 °F 94% 29.91 in 10.0 mi NE 3.5 mph - N/A   Scattered Clouds
4:53 AM 75.0 °F - 72.0 °F 90% 29.92 in 10.0 mi NE 4.6 mph - N/A   Clear
5:53 AM 73.9 °F - 72.0 °F 93% 29.94 in 10.0 mi NNE 3.5 mph - N/A   Clear
6:53 AM 73.9 °F - 72.0 °F 93% 29.95 in 10.0 mi NNE 4.6 mph - N/A   Clear
7:53 AM 75.0 °F - 73.0 °F 94% 29.95 in 9.0 mi NE 5.8 mph - N/A   Clear
8:53 AM 78.1 °F - 73.0 °F 84% 29.97 in 10.0 mi NE 6.9 mph - N/A   Clear
9:53 AM 82.0 °F 87.9 °F 73.9 °F 76% 29.99 in 10.0 mi East 8.1 mph - N/A   Clear
10:53 AM 82.9 °F 88.8 °F 73.0 °F 72% 30.00 in 10.0 mi East 9.2 mph - N/A   Partly Cloudy
11:53 AM 84.9 °F 90.7 °F 72.0 °F 65% 30.00 in 10.0 mi ENE 5.8 mph - N/A   Mostly Cloudy
12:53 PM 87.1 °F 92.8 °F 71.1 °F 59% 29.98 in 10.0 mi East 8.1 mph - N/A   Scattered Clouds
1:53 PM 89.1 °F 95.0 °F 71.1 °F 55% 29.97 in 10.0 mi East 9.2 mph - N/A   Partly Cloudy
2:53 PM 90.0 °F 96.9 °F 72.0 °F 55% 29.94 in 10.0 mi NE 11.5 mph - N/A   Scattered Clouds
3:53 PM 90.0 °F 95.4 °F 70.0 °F 52% 29.93 in 10.0 mi East 6.9 mph - N/A   Partly Cloudy
4:53 PM 86.0 °F 92.2 °F 72.0 °F 63% 29.93 in 10.0 mi ESE 12.7 mph - N/A   Mostly Cloudy
5:00 PM 84.2 °F 89.6 °F 71.6 °F 66% 29.93 in 10.0 mi ESE 13.8 mph - N/A   Mostly Cloudy
5:53 PM 86.0 °F 90.7 °F 70.0 °F 59% 29.92 in 10.0 mi ESE 12.7 mph 19.6 mph N/A   Clear
6:53 PM 84.0 °F 89.6 °F 72.0 °F 67% 29.94 in 10.0 mi SE 6.9 mph - N/A   Clear
7:53 PM 80.1 °F 84.5 °F 73.9 °F 81% 29.96 in 6.0 mi East 9.2 mph - 0.02 in Rain Light Rain
8:53 PM 79.0 °F - 73.9 °F 84% 29.97 in 10.0 mi East 4.6 mph - 0.01 in   Mostly Cloudy
9:53 PM 79.0 °F - 73.9 °F 84% 30.00 in 10.0 mi East 3.5 mph - 0.00 in Rain Light Rain
10:53 PM 78.1 °F - 73.9 °F 87% 30.01 in 10.0 mi ENE 5.8 mph - 0.00 in   Partly Cloudy
11:53 PM 77.0 °F - 73.0 °F 88% 30.01 in 10.0 mi ENE 6.9 mph - N/A   Partly Cloudy